Regional Weather Roundup
Issued by NWS

Home | Current Version | Previous Version | Text Only | Print | Product List | Glossary On
Versions: 1 2 3 4 5 6 7 8 9 10 11 12 13 14 15 16 17 18 19 20 21 22 23 24 25 26 27 28 29 30 31 32 33 34 35 36 37 38 39 40 41 42 43 44 45 46 47 48 49 50
000
ASUS43 KDMX 012007
RWRIA

WEATHER ROUNDUP FOR IOWA
NATIONAL WEATHER SERVICE DES MOINES IA
200 PM CST SUN MAR 01 2015

NOTE: "FAIR" INDICATES FEW OR NO CLOUDS BELOW 12,000 FEET WITH NO
SIGNIFICANT WEATHER AND/OR OBSTRUCTIONS TO VISIBILITY.

* - THESE STATIONS ARE NOT NWS STATIONS...THUS NOT UNDER NWS
QUALITY CONTROL.  THEY ALSO DO NOT REPORT WEATHER SUCH
AS PRECIPITATION OR FOG.

IAZ001>003-012>014-020>022-031>034-043>046-012100-
   NORTHWEST IOWA

CITY           SKY/WX    TMP DP  RH WIND       PRES   REMARKS
CARROLL *      CLOUDY    28  16  59 NW13      30.34S WCI  18
CHEROKEE *     MOSUNNY   30  18  59 W12       30.33S WCI  21
DENISON *      SUNNY     30  16  55 NW10G16   30.33S WCI  21
LE MARS *      PTSUNNY   32  18  55 NW12      30.33F WCI  23
ORANGE CITY *  CLOUDY    30  18  59 W13G18    30.30F WCI  20
SHELDON *      CLOUDY    30  18  59 W18       30.28F WCI  18
SIOUX CITY     SUNNY     35  15  44 W10       30.34F WCI  27
SPENCER        SUNNY     29  15  56 W21G28    30.31  WCI  16
STORM LAKE *   SUNNY     27  16  63 W16       30.32S WCI  14
$$

IAZ055>058-069>071-079>083-090>094-012100-
   SOUTHWEST IOWA

CITY           SKY/WX    TMP DP  RH WIND       PRES   REMARKS
ATLANTIC *     SUNNY     32  19  59 W9G16     30.35S WCI  24
AUDUBON *      SUNNY     32  16  51 NW10      30.35S WCI  24
CLARINDA *     MOSUNNY   36  21  55 VRB5G15   30.37F WCI  32
COUNCIL BLFS * SUNNY     34  18  51 N10       30.33F WCI  26
CRESTON *      SUNNY     32  18  55 NW9       30.33F WCI  24
HARLAN  *      SUNNY     32  18  55 NW8       30.38S WCI  25
LAMONI         MOSUNNY   33  22  63 W9        30.34F WCI  25
RED OAK *      SUNNY     34  19  55 N9        30.36S WCI  26
SHENANDOAH *   SUNNY     36  19  51 N5        30.37F WCI  32
$$

IAZ047>049-059>061-072>074-084-012100-
   CENTRAL IOWA

CITY           SKY/WX    TMP DP  RH WIND       PRES   REMARKS
AMES           SUNNY     29  14  53 NW14      30.33F WCI  18
ANKENY *       MOSUNNY   30  19  64 NW12      30.34F WCI  21
CHARITON *     MOSUNNY   32  21  64 VRB7G14   30.34S WCI  26
DES MOINES     MOSUNNY   32  17  54 NW13      30.34  WCI  22
GRINNELL*      SUNNY     28  21  74 W12       30.32F WCI  18
KNOXVILLE *    PTSUNNY   30  19  64 W10       30.33F WCI  21
MARSHALLTOWN   SUNNY     26  17  68 NW14      30.32  WCI  14
PELLA *        SUNNY     32  23  69 W9        30.35F WCI  24
PERRY *          N/A     30  19  64 NW8G16    30.34F WCI  23
$$

IAZ004>006-015-016-023>025-035-036-012100-
   NORTH CENTRAL IOWA

CITY           SKY/WX    TMP DP  RH WIND       PRES   REMARKS
ALGONA *       MOSUNNY   27  14  59 W17       30.31S WCI  14
CLARION *      MOSUNNY   27  18  69 NW12G18   30.32S WCI  16
ESTHERVILLE    SUNNY     27  16  63 W21G28    30.28F WCI  13
FORT DODGE *   MOSUNNY   27  14  59 W10G16    30.34S WCI  17
MASON CITY     SUNNY     23  11  60 W15       30.31  WCI  10
FOREST CITY *  SUNNY     25  10  54 NW12      30.29F WCI  14
IOWA FALLS *     N/A     27  16  63 W15       30.32F WCI  15
$$

IAZ007>011-017>019-026>030-037>042-050>054-066-012100-
   NORTHEAST IOWA

CITY           SKY/WX    TMP DP  RH WIND       PRES   REMARKS
CEDAR RAPIDS   CLOUDY    26  19  74 W12       30.31F WCI  16
CHARLES CITY * MOSUNNY   21  12  68 W16       30.30S WCI   7
CLINTON *      SUNNY     25  18  74 W10       30.34F WCI  15
DECORAH *      SUNNY     23  10  58 VRB7G15   30.26S WCI  15
DUBUQUE        CLOUDY    24  16  71 W17       30.27F WCI  11
MONTICELLO *   PTSUNNY   27  19  74 SW15      30.30F WCI  15
OELWEIN *      MOSUNNY   23  14  68 W17       30.29S WCI   9
WATERLOO       SUNNY     24  14  65 W10       30.30  WCI  14
$$

IAZ064-065-067-068-078-012100-
   EAST CENTRAL IOWA

CITY           SKY/WX    TMP DP  RH WIND       PRES   REMARKS
DAVENPORT      MOSUNNY   24  16  71 W13       30.34F WCI  12
IOWA CITY      PTSUNNY   27  18  69 W13       30.35F WCI  16
MT. PLEASANT * CLOUDY    27  18  69 W9        30.36F WCI  17
MUSCATINE *    CLOUDY    28  18  64 W13       30.36F WCI  18
QUAD CITIES    PTSUNNY   27  16  63 W9        30.33F WCI  18
$$

IAZ062-063-075>077-085>089-095>099-012100-
   SOUTHEAST IOWA

CITY           SKY/WX    TMP DP  RH WIND       PRES   REMARKS
BURLINGTON     CLOUDY    27  18  69 VRB6      30.35F WCI  20
FAIRFIELD *    PTSUNNY   27  18  69 W8        30.35F WCI  18
FORT MADISON * MOSUNNY   27  18  69 NW8       30.36F WCI  18
KEOKUK *       CLOUDY    28  19  69 CALM      30.36S
OSKALOOSA *    PTSUNNY   28  19  69 W8        30.34F WCI  20
CENTERVILLE *  PTSUNNY   28  21  74 W8        30.36F WCI  20
OTTUMWA        MOSUNNY   28  17  63 W8        30.34F WCI  20
WASHINGTON *   SUNNY     27  19  74 W8        30.34F WCI  18
$$

ABBREVIATIONS USED IN REMARKS
   TC - TEMPERATURES IN CELSIUS
  WCI - WIND CHILL INDEX
   HX - HEAT INDEX
  VSB - VISIBILITY
$$




USA.gov is the U.S. government's official web portal to all federal, state and local government web resources and services.